Change the Weather History Date:

Friday, March 1, 2013

  Actual Average Record
Temperature  
Mean Temperature 41 °F 38 °F  
Max Temperature 45 °F 43 °F 54 °F (1990)
Min Temperature 37 °F 33 °F 14 °F (1976)
Degree Days  
Heating Degree Days 24 27  
Month to date heating degree days 24 27  
Since 1 July heating degree days 4550 4565  
Cooling Degree Days 0    
Month to date cooling degree days 0  
Year to date cooling degree days 0  
Moisture  
Dew Point 36 °F    
Average Humidity 0    
Maximum Humidity 0    
Minimum Humidity 0    
Precipitation  
Precipitation 0.24 in 0.25 in 0.74 in (1965)
Month to date precipitation 0.24 0.25  
Year to date precipitation 21.80 18.29  
Snow  
Snow 0.00 in 0.30 in 4.70 in (1979)
Month to date snowfall 0.0 0.3  
Since 1 July snowfall 11.9 26.8  
Snow Depth 0.00 in    
Sea Level Pressure  
Sea Level Pressure 30.01 in    
Wind  
Wind Speed 7 mph (SE)    
Max Wind Speed 13 mph    
Max Gust Speed 17 mph    
Visibility 9 miles    
Events Rain    
T = Trace of Precipitation, MM = Missing Value Source: NWS Daily Summary

Daily Weather History Graph

Daily Weather History Graph

Search for Another Location

Airport or City:

Trip Planner

Search our weather history database for the weather conditions in past years. The results will help you decide how hot, cold, wet, or windy it might be!

Date:

Astronomy

Mar. 01, 2013 Rise Set
Actual Time 6:35 AM AKST 5:22 PM AKST
Civil Twilight 5:58 AM AKST 5:59 PM AKST
Nautical Twilight 5:16 AM AKST 6:41 PM AKST
Astronomical Twilight 4:34 AM AKST 7:23 PM AKST
Moon 11:00 PM AKST (3/1) 7:36 AM AKST (3/1)
Length of Visible Light 12h 00m
Length of Day
10h 47m
Waning Gibbous, 82% of the Moon is Illuminated
Mar 1
Waning Gibbous
Mar 4
Last Quarter
Mar 11
New
Mar 19
First Quarter
Mar 27
Full

Hourly Weather History & Observations

Time (AKST) Temp. Windchill Dew Point Humidity Pressure Visibility Wind Dir Wind Speed Gust Speed Precip Events Conditions
12:53 AM 39.9 °F 34.5 °F 37.0 °F 89% 30.01 in 10.0 mi SE 8.1 mph - N/A   Overcast
1:06 AM 39.2 °F 34.2 °F 37.4 °F 93% 30.00 in 10.0 mi ESE 6.9 mph - N/A   Overcast
1:13 AM 39.2 °F 34.2 °F 37.4 °F 93% 30.01 in 10.0 mi SE 6.9 mph - N/A   Overcast
1:53 AM 39.9 °F 35.8 °F 37.0 °F 89% 30.02 in 10.0 mi ESE 5.8 mph - N/A   Overcast
2:53 AM 39.9 °F 35.8 °F 36.0 °F 86% 30.01 in 10.0 mi ESE 5.8 mph - N/A   Mostly Cloudy
3:53 AM 39.9 °F 33.9 °F 35.1 °F 83% 30.02 in 10.0 mi SE 9.2 mph - N/A   Overcast
4:53 AM 39.9 °F 33.4 °F 37.0 °F 89% 30.02 in 10.0 mi ESE 10.4 mph - N/A   Overcast
5:53 AM 39.9 °F 34.5 °F 36.0 °F 86% 30.02 in 10.0 mi SE 8.1 mph - N/A   Scattered Clouds
6:30 AM 39.2 °F 37.0 °F 35.6 °F 87% 30.02 in 4.0 mi SE 3.5 mph - 0.03 in Rain Heavy Rain
6:53 AM 39.0 °F 36.8 °F 36.0 °F 89% 30.03 in 3.0 mi SSE 3.5 mph - 0.12 in Rain Heavy Rain
7:13 AM 39.2 °F 34.2 °F 35.6 °F 87% 30.02 in 9.0 mi SE 6.9 mph - 0.01 in Rain Light Rain
7:20 AM 37.4 °F 30.8 °F 35.6 °F 93% 30.02 in 4.0 mi SE 9.2 mph - 0.03 in Rain Rain
7:30 AM 37.4 °F - 35.6 °F 93% 30.02 in 2.0 mi Calm Calm - 0.06 in Rain Rain
7:43 AM 37.4 °F - 35.6 °F 93% 30.02 in 7.0 mi Calm Calm - 0.08 in Rain Light Rain
7:53 AM 37.9 °F - 36.0 °F 93% 30.03 in 9.0 mi Calm Calm - 0.09 in Rain Light Rain
8:51 AM 39.2 °F 33.6 °F 37.4 °F 93% 30.04 in 10.0 mi ESE 8.1 mph - 0.00 in   Overcast
8:53 AM 39.9 °F 34.5 °F 37.9 °F 93% 30.04 in 10.0 mi SE 8.1 mph - 0.00 in   Overcast
9:35 AM 39.2 °F 35.9 °F 37.4 °F 93% 30.04 in 10.0 mi ESE 4.6 mph - 0.00 in Rain Light Rain
9:53 AM 39.9 °F - 37.0 °F 89% 30.05 in 7.0 mi Calm Calm - 0.01 in Rain Light Rain
10:53 AM 43.0 °F 40.3 °F 37.9 °F 82% 30.05 in 10.0 mi SE 4.6 mph - 0.02 in   Overcast
11:53 AM 44.1 °F 39.5 °F 36.0 °F 73% 30.04 in 10.0 mi SE 8.1 mph - 0.00 in   Overcast
12:53 PM 44.1 °F 39.0 °F 34.0 °F 68% 30.02 in 10.0 mi SE 9.2 mph - N/A   Overcast
1:53 PM 44.1 °F 39.5 °F 34.0 °F 68% 30.01 in 10.0 mi ESE 8.1 mph - N/A   Partly Cloudy
2:53 PM 44.1 °F 40.8 °F 33.1 °F 65% 30.00 in 10.0 mi ESE 5.8 mph - N/A   Mostly Cloudy
3:53 PM 44.1 °F 41.5 °F 34.0 °F 68% 30.00 in 10.0 mi SSE 4.6 mph - N/A   Overcast
4:53 PM 43.0 °F - 34.0 °F 71% 29.99 in 10.0 mi Calm Calm - N/A   Mostly Cloudy
5:53 PM 39.9 °F - 35.1 °F 83% 29.99 in 10.0 mi Calm Calm - N/A   Overcast
6:53 PM 41.0 °F - 35.1 °F 79% 29.99 in 10.0 mi Calm Calm - N/A   Overcast
7:51 PM 41.0 °F 33.5 °F 35.6 °F 81% 29.99 in 10.0 mi SE 13.8 mph 24.2 mph 0.00 in Rain Light Rain
7:53 PM 41.0 °F 33.5 °F 36.0 °F 82% 30.00 in 10.0 mi SE 13.8 mph 24.2 mph 0.00 in Rain Light Rain
8:05 PM 39.2 °F 31.2 °F 35.6 °F 87% 29.99 in 10.0 mi SE 13.8 mph 21.9 mph 0.00 in Rain Light Rain
8:20 PM 39.2 °F 30.8 °F 35.6 °F 87% 29.99 in 8.0 mi SE 15.0 mph 21.9 mph 0.01 in Rain Light Rain
8:33 PM 37.4 °F 28.2 °F 35.6 °F 93% 30.00 in 6.0 mi SE 16.1 mph 21.9 mph 0.04 in Rain Rain
8:51 PM 37.4 °F 28.5 °F 35.6 °F 93% 30.00 in 8.0 mi ESE 15.0 mph 19.6 mph 0.08 in Rain Rain
8:53 PM 37.0 °F 27.7 °F 35.1 °F 93% 30.01 in 7.0 mi SE 16.1 mph 20.7 mph 0.08 in Rain Rain
9:05 PM 35.6 °F 27.5 °F 33.8 °F 93% 30.00 in 5.0 mi ESE 11.5 mph - 0.04 in Rain Rain
9:53 PM 36.0 °F 29.0 °F 34.0 °F 93% 30.00 in 8.0 mi ESE 9.2 mph - 0.10 in Rain Light Rain
10:53 PM 37.0 °F 29.8 °F 34.0 °F 89% 29.99 in 10.0 mi ESE 10.4 mph - 0.01 in   Overcast
11:16 PM 37.4 °F 29.8 °F 33.8 °F 87% 29.98 in 10.0 mi SE 11.5 mph 19.6 mph 0.00 in Rain Light Rain
11:53 PM 37.0 °F 28.9 °F 34.0 °F 89% 29.99 in 10.0 mi SE 12.7 mph - 0.00 in   Mostly Cloudy